Curacao, Curacao

6:40 PM AST on August 27, 2016 (GMT -0400)
Willemstad-Hato International

Weather History for TNCC - October, 2013

Change the Weather History Date:

Thursday, October 17, 2013

  Actual Average Record
Temperature  
Mean Temperature 84 °F -  
Max Temperature 89 °F 87 °F 95 °F (1998)
Min Temperature 78 °F 76 °F 75 °F (2008)
Cooling Degree Days 18    
Growing Degree Days 34 (Base 50)    
Moisture  
Dew Point 77 °F    
Average Humidity 79    
Maximum Humidity 89    
Minimum Humidity 62    
Precipitation  
Precipitation 0.04 in 0.12 in - ()
Sea Level Pressure  
Sea Level Pressure 29.87 in    
Wind  
Wind Speed 6 mph ()    
Max Wind Speed 15 mph    
Max Gust Speed -    
Visibility 8.5 miles    
Events Rain , Thunderstorm    
Averages and records for this station are not official NWS values.
T = Trace of Precipitation, MM = Missing Value Source: Averaged Metar Reports

Daily Weather History Graph

Daily Weather History Graph

Search for Another Location

Airport or City:

Trip Planner

Search our weather history database for the weather conditions in past years. The results will help you decide how hot, cold, wet, or windy it might be!

Date:

Astronomy

Oct. 17, 2013 Rise Set
Actual Time 6:25 AM AST 6:16 PM AST
Civil Twilight 6:04 AM AST 6:37 PM AST
Nautical Twilight 5:39 AM AST 7:02 PM AST
Astronomical Twilight 5:14 AM AST 7:27 PM AST
Moon 5:21 PM AST (10/17) 5:05 AM AST (10/17)
Length of Visible Light 12h 33m
Length of Day
11h 50m
Waxing Gibbous, 98% of the Moon is Illuminated
Oct 17
Waxing Gibbous
Oct 18
Full
Oct 26
Last Quarter
Nov 3
New
Nov 10
First Quarter

Hourly Weather History & Observations

Time (AST) Temp. Heat Index Dew Point Humidity Pressure Visibility Wind Dir Wind Speed Gust Speed Precip Events Conditions
12:00 AM 82.4 °F 90.9 °F 77.0 °F 84% 29.92 in 6.2 mi SE 3.5 mph - N/A Thunderstorm Thunderstorm
1:00 AM 82.4 °F 90.9 °F 77.0 °F 84% 29.89 in 6.2 mi ESE 3.5 mph - N/A   Scattered Clouds
2:00 AM 81 °F - 76 °F 80% 29.86 in 19 mi SE 3.5 mph - - Rain Light Rain
2:00 AM 80.6 °F 86.2 °F 75.2 °F 84% 29.86 in 6.2 mi SE 3.5 mph - N/A Rain Light Rain
3:00 AM 80.6 °F 87.1 °F 77.0 °F 89% 29.83 in 6.2 mi SE 4.6 mph - N/A   Scattered Clouds
4:00 AM 80.6 °F 87.1 °F 77.0 °F 89% 29.83 in 6.2 mi SE 4.6 mph - N/A   Scattered Clouds
5:00 AM 80 °F - 76 °F 86% 29.86 in 19 mi SSE 4.6 mph - -   Scattered Clouds
5:00 AM 80.6 °F 87.1 °F 77.0 °F 89% 29.86 in 6.2 mi SSE 3.5 mph - N/A   Partly Cloudy
6:00 AM 80.6 °F 87.1 °F 77.0 °F 89% 29.86 in 6.2 mi South 3.5 mph - N/A   Partly Cloudy
7:00 AM 80.6 °F 86.2 °F 75.2 °F 84% 29.89 in 6.2 mi Variable 2.3 mph - N/A   Partly Cloudy
8:00 AM 84.2 °F 94.1 °F 77.0 °F 79% 29.89 in 6.2 mi SE 8.1 mph - N/A   Partly Cloudy
9:00 AM 86.0 °F 96.9 °F 77.0 °F 74% 29.92 in 6.2 mi ESE 10.4 mph - N/A   Partly Cloudy
10:00 AM 86.0 °F 96.9 °F 77.0 °F 74% 29.92 in 6.2 mi East 9.2 mph - N/A   Partly Cloudy
11:00 AM 86.0 °F 96.9 °F 77.0 °F 74% 29.92 in 6.2 mi East 11.5 mph - N/A   Scattered Clouds
12:00 PM 87.8 °F 102.5 °F 78.8 °F 75% 29.89 in 6.2 mi East 11.5 mph - N/A   Scattered Clouds
2:00 PM 89 °F - 78 °F 62% 29.86 in 19 mi East 15.0 mph - -   Partly Cloudy
2:00 PM 89.6 °F 102.2 °F 77.0 °F 66% 29.86 in 6.2 mi East 12.7 mph - N/A   Scattered Clouds
3:00 PM 87.8 °F 99.7 °F 77.0 °F 70% 29.80 in 6.2 mi East 9.2 mph - N/A   Unknown
4:00 PM 86.0 °F 95.1 °F 75.2 °F 70% 29.80 in 6.2 mi East 12.7 mph - N/A   Partly Cloudy
5:00 PM 85 °F - 76 °F 69% 29.82 in 19 mi East 8.1 mph - -   Partly Cloudy
5:00 PM 86.0 °F 96.9 °F 77.0 °F 74% 29.80 in 6.2 mi East 9.2 mph - N/A   Partly Cloudy
6:00 PM 84.2 °F 94.1 °F 77.0 °F 79% 29.83 in 6.2 mi East 6.9 mph - N/A   Partly Cloudy
7:00 PM 84.2 °F 94.1 °F 77.0 °F 79% 29.86 in 6.2 mi ESE 11.5 mph - N/A   Partly Cloudy
8:00 PM 84 °F - 77 °F 73% 29.90 in 19 mi SE 6.9 mph - -  
8:00 PM 84.2 °F 94.1 °F 77.0 °F 79% 29.89 in 6.2 mi SE 9.2 mph - N/A   Partly Cloudy
9:00 PM 84.2 °F 94.1 °F 77.0 °F 79% 29.89 in 6.2 mi ESE 6.9 mph - N/A   Partly Cloudy
10:00 PM 78.8 °F - 73.4 °F 83% 29.92 in 6.2 mi SSE 13.8 mph - N/A Rain Light Rain
11:00 PM 82.4 °F 90.9 °F 77.0 °F 84% 29.92 in 6.2 mi SE 10.4 mph - N/A   Partly Cloudy